282  
ASUS42 KILM 180413  
RWRILM  
RWRILM  
REGIONAL HOURLY WEATHER ROUNDUP  
NATIONAL WEATHER SERVICE WILMINGTON NC  
1100 PM EST SUN FEB 17 2019  
 
NOTE: "FAIR" INDICATES FEW OR NO CLOUDS BELOW 12,000 FEET WITH NO  
SIGNIFICANT WEATHER AND/OR S TO VISIBILITY
.  
   
..............WFO WILMINGTON COUNTY WARNING AREA............
 
 
   
.....COASTAL NC AND SC COUNTIES...
 
 
 
CITY SKY/WX TMP DP RH WIND PRES REMARKS
 
WILMINGTON FAIR 51 46 83 CALM 29.94S  
N MYRTLE BEACH CLOUDY 51 47 86 N5 29.93F  
MYRTLE BEACH CLOUDY 54 52 93 SE9 29.93F  
   
.....INLAND NC AND SC COUNTIES....
 
 
 
CITY SKY/WX TMP DP RH WIND PRES REMARKS
 
LUMBERTON NOT AVBL  
ELIZABETHTOWN CLOUDY 44 44 97 NW5 29.97R FOG  
WHITEVILLE CLOUDY 47 44 88 CALM 29.95F  
FLORENCE FOG 44 44 100 CALM 29.94F VSB 1/4  
DARLINGTON FOG 42 42 100 S6 29.93F VSB 1/4  
KINGSTREE CLOUDY 50 46 87 CALM 29.93S FOG  
HARTSVILLE FOG 41 41 100 SE3 29.92F VSB 1/4  
BENNETTSVILLE FOG 41 41 100 SE5 29.92F VSB 1/2  
CONWAY CLOUDY 50 50 100 CALM 29.93F  
GEORGETOWN MOCLDY 52 52 100 SE5 29.95F  
MARION FOG 43 43 100 NE3 29.93F VSB 1/2  
   
...................REST OF NORTH CAROLINA...................
 
 
   
........EASTERN NC......
 
 
 
CITY SKY/WX TMP DP RH WIND PRES REMARKS
 
CAPE HATTERAS LGT RAIN 63 58 83 S9 29.92F  
JACKSONVILLE CLOUDY 47 47 100 CALM 29.94F  
MOREHEAD CITY FAIR 53 53 100 CALM 29.91F  
KENANSVILLE LGT RAIN 45 45 100 NW6 29.96S FOG  
NEW BERN CLOUDY 48 47 96 CALM 29.93F  
ELIZABETH CITY LGT RAIN 47 44 90 NW9 29.95F  
   
........CENTRAL NC......
 
 
 
CITY SKY/WX TMP DP RH WIND PRES REMARKS
 
RALEIGH DURHAM LGT RAIN 39 38 96 E3 29.91F FOG  
ROCKY MOUNT LGT RAIN 41 41 100 CALM 29.95F  
ROANOKE RAPIDS NOT AVBL  
FAYETTEVILLE FOG 42 41 96 SE5 29.92F VSB 1  
HOFFMAN LGT RAIN 40 40 99 SE6 29.89F VSB 5/8  
   
........WESTERN NC......
 
 
 
CITY SKY/WX TMP DP RH WIND PRES REMARKS
 
CHARLOTTE LGT RAIN 39 38 96 NW5 29.93R FOG  
GREENSBORO LGT RAIN 37 37 100 CALM 29.90F FOG  
HICKORY NOT AVBL  
BOONE NOT AVBL  
ASHEVILLE NOT AVBL  
   
....................REST OF SOUTH CAROLINA..................
 
 
   
........EASTERN SC......
 
 
 
CITY SKY/WX TMP DP RH WIND PRES REMARKS
 
CHARLESTON CLOUDY 57 55 93 S10 29.94F FOG  
BEAUFORT MCAS CLOUDY 61 61 100 S9 29.94F  
HILTON HEAD MOCLDY 59 59 100 S7 29.96F FOG  
   
........CENTRAL SC......
 
 
 
CITY SKY/WX TMP DP RH WIND PRES REMARKS
 
COLUMBIA FOG 45 45 100 E6 29.92F VSB 1/4  
ORANGEBURG CLOUDY 52 49 89 S5 29.91F  
SUMTER SHAW FOG 45 45 99 NE3 29.92F VSB 1/2  
   
........WESTERN SC......
 
 
 
CITY SKY/WX TMP DP RH WIND PRES REMARKS
 
GREENVILLE NOT AVBL  
ROCK HILL FOG 39 39 100 SE5 29.91F VSB 1  
ANDERSON LGT RAIN 40 39 97 NE6 29.94R  
CLEMSON NOT AVBL  
GREENWOOD FOG 39 39 100 NW3 29.94R VSB 1  
 
   
..................COASTAL AND OFFSHORE REPORTS...............
 
 
   
...............LOCAL PIERS AND NC RESERVE.............
 
 
 
STATION/POSITION TIME SKY/WX TEMP WIND PRES VSBY
 
AIR SEA DIR/SP/G  
(UTC) (F) (DEG/KT/KT) (MB) (MI)  
JOHNY MRCER PIER 0336 53 53 70/ 2/ 2 1013.6F  
NC RESRV MASNBRO NOT AVBL  
OCEAN CREST PIER NOT AVBL  
SPRINGMAID PIER NOT AVBL  
 
   
...............COASTAL AND OFFSHORE BUOYS.............
 
 
 
STATION/POSITION TIME SKY/WX TEMP WIND PRES VSBY
 
AIR SEA DIR/SP/G  
(UTC) (F) (DEG/KT/KT) (MB) (MI)  
DIMNDSHOAL 41025 NOT AVBL  
CAPE LOOKOUT 0400 180/ 10/ 10 1012.9F  
ONSLOW BAY 41036 NOT AVBL  
ONSLOW BAY 41064 0308 64 63 180/ 2/ 4 1013.3F  
ONSLOW BAY 41159 0400 63 N/A  
WVE H/P(F/S)= 4/ 8  
 
MASNBO INL 41110 0400 53 N/A  
WVE H/P(F/S)= 3/ 5  
 
WILM HARBR 41108 0400 54 N/A  
WVE H/P(F/S)= 2/ 6  
 
27SE WRITB 41037 0308 57 60 340/ 8/ 12 1014.6F  
FRYING PAN 41013 0350 70 69 200/ 16/ 19 1014.7F  
WVE H/P(F/S)= 4/ 9 SWL H/P/D(F/S/D)= 2/100/ 9  
 
SUNST NRSH 41024 0308 51 54 130/ 4/ 6 1014.2F  
CAPRS NRSH 41029 0308 56 57 110/ 8/ 12 1015.2F  
EDISTO 41004 0350 70 180/ 12/ 16 1015.1F  
WVE H/P(F/S)= 3/ 8 SWL H/P/D(F/S/D)= 2/130/ 8  
 
   
.........OFFSHORE BUOYS BEYOND 100 NM OFFSHORE........
 
   
....IN A TRIANGLE---HAT TO BERMUDA TO BAHAMAS TO HAT..
 
 
 
 
STATION/POSITION TIME SKY/WX TEMP WIND PRES VSBY
 
AIR SEA DIR/SP/G  
(UTC) (F) (DEG/KT/KT) (MB) (MI)  
150E HAT 41001 NOT AVBL  
W BERMUDA 41048 NOT AVBL  
ATLANTIC S 41049 0350 74 280/ 4/ 6 1022.7R  
WVE H/P(F/S)= 4/ 8 SWL H/P/D(F/S/D)= 3/130/ 8  
 
E BAHAMAS 41046 0350 70/ 8/ 10 1022.3S  
WVE H/P(F/S)= 4/ 8 SWL H/P/D(F/S/D)= 5/120/ 8  
 
NE BAHAMAS 41047 0350 130/ 4/ 6 1021.9F  
WVE H/P(F/S)= 4/ 8 SWL H/P/D(F/S/D)= 3/ 90/ 8  
 
120E CANVRL41010 0400 75 76 160/ 14/ 17 1018.3  
 
END  
 
 
CLICK HERE TO GO TO PREVIOUS BULLETINS.

The Nexlab NC Page
The Nexlab SC Page Main Text Page